Location: Claflin County Park
(44.8478°N, 87.5507°W)
Time: 03:28:55
(UTC+00:00)

USA 234 - Pass Details

Date: 16 March 2026
Orbit: 1102 x 1106 km, 123.0° (Epoch: 4 January)

Event Time Altitude Azimuth Distance (km) Brightness Sun altitude
Exits shadow 04:48:50 23° 297° (WNW) 2,174 5.1 -44.2°
Drops below altitude 10° 04:51:03 10° 304° (NW) 2,968 6.0 -44.4°
Sets 04:53:35 0° 308° (NW) 3,929 6.8 -44.5°
